Probability
0 0 0 0 0 0 0 0 0 0 0 0 0 0 0 0 0 0 0 0 0 0 0 0 0 0 0 0 0 0 0 0 0 0 0 0 0 0 0 0 0 0 0
0 0 0 0 0 0 0 0 0 0 0 0 0 0 0 0 0 0 0 0 0 0 0 0 0 0 0 0 0 0 0 0 0 0 0 0 0 0 0 0 0 0 0
0 0 0 0 0 0 0 0 0 0 0 0 0 0 0 0 0 0 1 1 0 0 0 0 0 0 0 0 0 0 0 0 0 0 0 0 0 0 0 0 0 0 0
0 0 0 0 0 0 0 0 0 0 0 0 0 0 0 0 0 1 2 2 1 0 0 0 0 0 0 0 0 0 0 0 0 0 0 0 0 0 0 0 0 0 0
0 0 0 0 0 0 0 0 0 0 0 0 0 0 0 0 0 1 2 2 1 0 0 0 0 0 0 0 0 0 0 0 0 0 0 0 0 0 0 0 0 0 0
0 0 0 0 0 0 0 0 0 0 0 0 0 0 0 0 0 1 1 1 0 0 0 0 0 0 0 0 0 0 0 0 0 0 0 0 0 0 0 0 0 0 0
0 0 0 0 0 0 0 0 0 0 0 0 0 0 0 0 0 0 0 0 0 0 0 0 0 0 0 0 0 0 0 0 0 0 0 0 0 0 0 0 0 0 0
0 0 0 0 0 0 0 0 0 0 0 0 0 0 0 0 0 0 0 0 0 0 0 0 0 0 0 0 0 0 0 0 0 0 0 0 0 0 0 0 0 0 0
0 0 0 0 0 0 0 0 0 0 0 0 0 0 0 0 0 0 0 0 0 0 0 0 0 0 0 0 0 0 0 0 0 0 0 0 0 0 0 0 0 0 0
0 0 0 0 0 0 0 0 0 0 0 0 0 0 0 0 0 0 0 0 0 0 0 0 0 0 0 0 0 0 0 0 0 0 0 0 0 0 0 0 0 0 0
0 0 0 0 0 0 0 0 0 0 0 0 0 0 0 0 0 0 0 0 0 0 0 0 0 0 0 0 0 0 0 0 0 0 0 0 0 0 0 0 0 0 0
0 0 0 0 0 0 0 0 0 0 0 0 0 0 0 0 0 0 0 0 0 0 0 0 0 0 0 0 0 0 0 0 0 0 0 0 0 0 0 0 0 0 0
0 0 0 0 0 0 0 0 0 0 0 0 0 0 0 0 0 0 0 0 0 0 0 0 0 0 0 0 0 0 0 0 0 0 0 0 0 0 0 0 0 0 0
0 0 0 0 0 0 0 0 0 0 0 0 0 0 0 0 0 0 0 0 0 0 0 0 0 0 0 0 0 0 0 0 0 0 0 0 0 0 0 0 0 0 0
0 0 0 0 0 0 0 0 0 0 0 0 0 0 0 0 0 0 0 0 0 0 0 0 0 0 0 0 0 0 0 0 0 0 0 0 0 0 0 0 0 0 0
0 0 0 0 0 0 0 0 0 0 0 0 0 0 0 0 0 0 0 0 0 0 0 0 0 0 0 0 0 0 0 0 0 0 0 0 0 0 0 0 0 0 0
0 0 0 0 0 0 0 0 0 0 0 0 0 0 0 0 0 0 0 0 0 0 0 0 0 0 0 0 0 0 0 0 0 0 0 0 0 0 0 0 0 0 0
0 0 0 0 0 0 0 0 0 0 0 0 0 0 0 0 0 0 0 0 0 0 0 0 0 0 0 0 0 0 0 0 0 0 0 0 0 0 0 0 0 0 0
0 0 0 0 0 0 0 0 0 0 0 0 0 0 0 0 0 0 0 0 0 0 0 0 0 0 0 0 0 0 0 0 0 0 0 0 0 0 0 0 0 0 0
0 0 0 0 0 0 0 0 0 0 0 0 0 0 0 0 0 0 0 0 0 0 0 0 0 0 0 0 0 0 0 0 0 0 0 0 0 0 0 0 0 0 0
0 0 0 0 0 0 0 0 0 0 0 0 0 0 0 0 0 0 0 0 0 0 0 0 0 0 0 0 0 0 0 0 0 0 0 0 0 0 0 0 0 0 0
0 0 0 0 0 0 0 0 0 0 0 0 0 0 0 0 0 0 0 0 0 0 0 0 0 0 0 0 0 0 0 0 0 0 0 0 0 0 0 0 0 0 0
0 0 0 0 0 0 0 0 0 0 0 0 0 0 0 0 0 0 0 0 0 0 0 0 0 0 0 0 0 0 0 0 0 0 0 0 0 0 0 0 0 0 0
0 0 0 0 0 0 0 0 0 0 0 0 0 0 0 0 0 0 0 0 0 0 0 0 0 0 0 0 0 0 0 0 0 0 0 0 0 0 0 0 0 0 0
0 0 0 0 0 0 0 0 0 0 0 0 0 0 0 0 0 0 0 0 0 0 0 0 0 0 0 0 0 0 0 0 0 0 0 0 0 0 0 0 0 0 0
0 0 0 0 0 0 0 0 0 0 0 0 0 0 0 0 0 0 0 0 0 0 0 0 0 0 0 0 0 0 0 0 0 0 0 0 0 0 0 0 0 0 0
Wind_Speed
10 11 11 12 13 13 13 14 14 12 12 13 14 14 15 15 15 14 15 13 15 15 12 13 14 11 9 8 7 6 6 5 5 2 2 3 7 7 6 5 5 4 3
7 7 9 10 10 11 13 14 13 13 13 13 13 14 15 15 15 16 17 16 16 16 15 14 15 10 12 9 8 8 7 6 5 5 4 4 5 7 6 5 4 4 3
5 5 6 7 8 10 11 10 10 12 12 12 13 14 14 14 15 16 16 16 16 16 15 15 14 12 13 9 9 8 6 5 4 5 5 3 2 4 5 3 3 2 3
4 4 5 6 6 6 6 7 8 8 10 10 12 13 13 13 13 14 14 14 14 14 13 13 13 13 14 12 9 9 7 6 5 5 5 4 3 3 4 4 3 3 3
4 4 5 4 3 3 3 4 4 5 7 7 8 9 9 9 9 11 11 12 12 11 10 10 10 11 12 10 8 9 9 7 6 5 5 4 4 5 6 4 4 2 2
4 3 2 1 1 2 2 2 3 3 3 3 5 6 7 6 8 11 10 9 9 9 8 7 5 6 8 9 10 11 12 10 10 8 6 7 7 6 5 5 4 3 3
3 2 2 2 1 1 1 1 2 2 1 2 2 3 4 4 5 7 10 7 6 6 6 5 4 4 6 6 7 10 9 10 11 8 8 7 8 8 9 7 5 4 3
3 2 2 2 1 1 0 1 1 0 0 1 1 1 2 2 2 4 5 4 3 3 4 5 6 6 7 8 7 6 5 5 6 4 5 5 5 6 7 6 6 4 1
3 2 2 2 2 1 1 1 0 0 0 0 1 1 1 1 1 2 3 2 2 2 2 3 5 6 10 13 9 8 6 4 5 8 8 8 10 12 10 6 5 4 2
3 3 2 2 2 2 1 1 1 1 1 1 2 1 1 1 1 1 4 2 2 2 2 2 4 7 11 14 9 9 9 6 6 6 6 8 7 9 12 7 7 5 3
3 3 3 2 2 2 2 1 2 2 2 2 2 2 2 1 1 1 4 2 3 3 3 2 3 8 11 13 9 6 7 8 7 6 5 4 4 4 4 4 5 5 4
4 4 3 3 2 2 3 3 2 3 3 2 2 2 2 1 1 0 2 3 4 3 3 2 3 8 10 11 7 8 11 9 6 5 5 5 5 5 4 4 4 3 3
5 4 4 3 3 3 3 3 2 2 2 1 1 1 1 1 1 1 1 3 4 3 2 5 6 9 8 7 9 11 8 6 5 5 6 5 4 4 4 3 3 2 2
6 4 4 4 3 3 2 2 2 2 2 2 1 1 0 0 0 0 1 2 3 3 3 4 7 8 6 5 6 6 5 5 5 5 4 3 3 3 4 4 4 3 3
5 4 3 3 3 3 3 2 2 1 1 1 1 1 1 1 1 1 2 2 2 3 4 3 3 3 4 3 4 4 4 4 4 4 4 4 4 4 4 4 4 4 4
5 4 3 3 3 3 3 3 5 4 4 4 2 1 0 0 1 2 3 4 5 8 5 3 3 4 4 5 5 5 5 5 5 4 5 5 5 5 5 4 4 5 6
5 4 3 3 3 3 2 3 2 4 6 6 5 4 2 1 0 1 3 4 6 7 3 3 3 4 4 4 4 5 5 5 4 5 5 5 5 5 5 5 6 5 6
5 4 4 3 3 3 2 2 2 2 1 2 4 5 5 3 2 1 1 3 2 3 1 2 3 3 3 4 4 4 4 4 4 5 5 5 5 5 5 6 6 7 6
4 3 3 3 3 3 3 3 2 2 2 1 2 4 5 4 3 3 2 1 1 1 1 1 1 2 2 3 3 3 3 4 4 4 4 5 5 5 6 6 6 7 7
4 5 4 3 3 3 3 3 2 2 2 1 2 2 2 2 2 2 1 1 0 1 1 1 2 2 2 2 2 3 3 4 4 4 5 5 4 5 6 6 6 6 6
4 4 5 4 3 3 2 2 2 2 1 1 1 2 2 1 0 1 1 1 1 1 1 1 2 2 2 2 2 3 4 4 4 4 4 4 4 4 5 5 5 5 5
4 4 3 3 3 2 2 2 2 2 1 1 1 2 4 2 1 1 1 1 2 1 1 1 1 1 2 2 2 3 3 4 4 4 4 4 4 5 4 4 5 5 5
4 4 4 3 3 3 3 2 2 1 1 1 1 1 2 1 1 1 1 2 2 2 2 1 1 1 1 1 1 2 2 3 3 3 3 3 4 4 4 5 6 6 6
4 4 3 3 2 2 2 1 1 1 1 1 1 1 1 1 2 2 2 2 2 2 2 1 2 2 3 2 2 2 2 3 3 3 4 4 4 4 4 4 5 6 6
3 3 3 2 2 1 1 1 0 0 0 1 1 1 2 2 2 2 2 2 3 3 3 3 2 2 3 4 4 4 5 6 4 3 3 4 4 5 4 5 4 4 5
2 2 1 1 1 1 1 1 1 1 1 2 2 2 2 2 3 3 3 3 3 3 3 3 3 4 5 4 5 6 6 7 6 6 4 4 4 4 4 4 5 5 5
Wind_Direction
218 217 218 220 219 219 222 223 223 221 217 218 218 218 220 221 220 222 226 224 226 229 224 224 227 218 218 216 211 206 207 195 203 165 142 152 165 176 176 175 177 187 211
220 219 222 223 220 221 225 226 223 223 220 219 219 220 221 221 219 221 225 224 226 228 226 224 226 217 218 215 209 207 205 197 183 175 159 162 176 181 170 173 177 186 201
214 217 223 225 224 227 229 229 225 225 224 221 220 222 223 222 220 221 223 224 226 228 226 224 224 215 216 213 207 206 197 187 165 153 154 148 141 165 160 168 175 185 207
206 211 222 226 228 232 235 233 230 227 226 224 223 225 224 222 222 222 223 225 226 228 226 224 221 214 215 209 202 199 182 171 156 146 142 144 139 146 156 169 182 192 210
198 209 223 228 234 240 244 243 238 233 232 229 226 227 226 224 223 222 223 225 227 228 227 225 221 216 213 204 197 188 175 172 160 159 153 149 159 163 187 177 180 162 223
192 209 216 214 227 241 252 258 251 246 242 233 229 227 229 228 226 220 220 222 222 223 224 221 214 203 200 200 195 186 181 177 176 173 173 178 183 176 158 162 154 157 221
183 195 193 193 213 244 253 258 251 248 238 234 236 230 235 242 231 220 217 217 216 217 213 202 190 184 176 175 179 178 184 189 178 173 176 181 174 176 164 164 173 177 194
173 186 187 181 200 231 243 251 259 252 211 229 249 251 254 270 238 216 208 206 210 205 194 188 184 176 176 166 160 165 170 177 168 160 164 159 158 160 166 161 159 141 101
171 188 188 173 174 182 203 222 220 84 74 65 37 346 297 313 306 202 174 157 175 183 168 172 174 173 176 168 161 162 157 154 148 139 139 144 152 157 151 132 137 146 197
181 179 161 154 161 173 176 157 111 97 86 76 55 35 20 336 342 203 172 149 163 160 150 157 179 179 177 175 170 168 171 166 144 138 140 146 151 163 168 167 164 170 177
144 132 130 138 147 144 129 113 109 106 99 89 76 52 38 17 350 217 177 157 167 165 166 169 182 186 184 185 179 175 174 152 147 145 143 143 144 158 172 174 177 181 185
123 121 120 119 118 120 120 111 107 115 111 102 91 68 45 31 25 325 186 172 159 159 170 167 176 185 188 185 180 169 160 148 143 152 165 178 183 188 185 181 182 190 193
120 118 114 109 104 110 120 123 117 120 122 122 112 91 40 26 20 25 141 160 159 143 155 167 171 180 181 181 179 168 158 156 160 176 191 198 193 179 160 156 163 171 184
124 121 121 120 109 96 95 107 120 131 131 130 130 123 72 0 348 33 112 129 137 135 135 153 165 173 172 158 162 168 169 175 182 195 196 179 155 163 179 179 188 186 211
121 121 120 117 120 112 95 87 102 91 114 142 167 162 163 232 265 219 171 166 156 152 135 130 143 156 165 163 169 174 176 180 191 193 188 187 186 188 196 185 186 188 209
128 128 128 126 118 112 108 83 67 74 68 69 77 100 151 242 210 199 201 189 175 161 146 161 175 184 191 190 191 194 196 201 203 200 202 202 201 204 202 190 192 203 222
130 133 131 127 123 118 115 116 101 53 54 56 50 45 36 28 20 215 203 187 178 169 166 180 192 199 202 202 203 204 207 205 200 204 210 211 209 209 206 203 202 210 224
117 120 122 123 121 117 113 107 107 106 63 12 16 25 24 23 19 350 193 157 177 188 191 201 208 206 205 208 211 212 211 201 203 210 214 215 212 211 211 213 211 214 221
110 109 106 106 101 100 100 98 94 92 84 40 9 8 10 14 31 33 70 121 175 205 207 217 223 216 217 218 218 213 210 211 212 214 218 219 216 215 220 220 218 217 217
95 96 97 99 96 94 92 94 94 94 85 60 30 1 359 26 33 11 15 33 198 236 220 220 230 233 229 226 225 220 220 222 218 219 222 221 219 221 227 225 221 219 219
100 97 95 94 93 97 99 99 100 99 93 69 356 339 14 52 19 347 342 339 327 297 278 251 240 238 236 233 230 229 228 228 225 225 226 223 219 224 228 229 227 225 223
97 96 93 97 95 89 88 88 91 95 92 71 3 354 13 35 24 358 344 342 342 336 326 306 279 262 251 246 244 239 236 237 231 228 229 228 225 224 224 225 227 224 221
92 95 89 81 81 84 78 70 73 77 68 41 9 358 1 1 344 328 318 314 319 322 326 323 301 299 306 291 272 254 249 247 241 233 234 236 233 228 222 222 222 222 222
88 97 100 96 89 88 90 78 59 50 41 360 332 320 318 315 308 307 308 310 314 313 313 303 285 283 291 291 280 270 264 265 255 238 231 233 232 233 229 229 226 223 224
84 92 100 108 113 116 114 106 76 331 303 293 290 290 294 295 294 296 298 297 297 294 295 292 283 282 284 282 281 275 274 274 260 239 227 226 229 226 227 230 227 223 223
86 96 105 115 130 150 173 205 238 256 263 268 268 267 270 272 274 277 281 282 283 282 283 283 282 284 286 281 278 280 275 270 258 241 222 220 223 225 220 225 224 222 221